Time,TemperatureF,DewpointF,PressureIn,WindDirection,WindDirectionDegrees,WindSpeedMPH,WindSpeedGustMPH,Humidity,HourlyPrecipIn,Conditions,Clouds,dailyrainin,SoftwareType,DateUTC
2013-09-10 00:06:00,46.4,41.8,29.99,ESE,112,0.0,-999.0,84,-99.99,,,0.00,Acu-Link.com,2013-09-10 07:06:00,
2013-09-10 00:21:00,46.4,42.4,30.00,ESE,112,0.0,-999.0,86,-99.99,,,0.00,Acu-Link.com,2013-09-10 07:21:00,
2013-09-10 00:36:00,44.6,40.7,30.00,ESE,112,0.0,-999.0,86,-99.99,,,0.00,Acu-Link.com,2013-09-10 07:36:00,
2013-09-10 00:51:00,44.6,41.6,30.00,ESE,112,0.0,-999.0,89,-99.99,,,0.00,Acu-Link.com,2013-09-10 07:51:00,
2013-09-10 01:06:00,44.6,41.6,30.00,ESE,112,0.0,-999.0,89,-99.99,,,0.00,Acu-Link.com,2013-09-10 08:06:00,
2013-09-10 01:22:00,44.6,41.6,30.01,ESE,112,0.0,-999.0,89,-99.99,,,0.00,Acu-Link.com,2013-09-10 08:22:00,
2013-09-10 01:37:00,44.6,41.6,30.01,ESE,112,0.0,-999.0,89,-99.99,,,0.00,Acu-Link.com,2013-09-10 08:37:00,
2013-09-10 01:53:00,44.6,41.3,30.01,ESE,112,0.0,-999.0,88,-99.99,,,0.00,Acu-Link.com,2013-09-10 08:53:00,
2013-09-10 02:08:00,42.8,39.8,30.01,ESE,112,0.0,-999.0,89,-99.99,,,0.00,Acu-Link.com,2013-09-10 09:08:00,
2013-09-10 02:23:00,42.8,40.1,30.02,ESE,112,0.0,-999.0,90,-99.99,,,0.00,Acu-Link.com,2013-09-10 09:23:00,
2013-09-10 02:38:00,42.8,40.1,30.02,ESE,112,0.0,-999.0,90,-99.99,,,0.00,Acu-Link.com,2013-09-10 09:38:00,
2013-09-10 02:53:00,42.8,42.3,30.02,ESE,112,0.0,-999.0,98,-99.99,,,0.00,Acu-Link.com,2013-09-10 09:53:00,
2013-09-10 03:08:00,42.8,42.3,30.02,ESE,112,0.0,-999.0,98,-99.99,,,0.00,Acu-Link.com,2013-09-10 10:08:00,
2013-09-10 03:24:00,41.0,38.6,30.02,ESE,112,0.0,-999.0,91,-99.99,,,0.00,Acu-Link.com,2013-09-10 10:24:00,
2013-09-10 03:39:00,41.0,40.5,30.02,ESE,112,0.0,-999.0,98,-99.99,,,0.00,Acu-Link.com,2013-09-10 10:39:00,
2013-09-10 03:54:00,41.0,40.5,30.03,SE,135,0.0,-999.0,98,-99.99,,,0.00,Acu-Link.com,2013-09-10 10:54:00,
2013-09-10 04:09:00,41.0,38.6,30.03,SE,135,0.0,-999.0,91,-99.99,,,0.00,Acu-Link.com,2013-09-10 11:09:00,
2013-09-10 04:24:00,41.0,40.5,30.03,ESE,112,0.0,-999.0,98,-99.99,,,0.00,Acu-Link.com,2013-09-10 11:24:00,
2013-09-10 04:39:00,41.0,40.5,30.04,ESE,112,0.0,-999.0,98,-99.99,,,0.00,Acu-Link.com,2013-09-10 11:39:00,
2013-09-10 04:54:00,41.0,40.5,30.04,ESE,112,0.0,-999.0,98,-99.99,,,0.00,Acu-Link.com,2013-09-10 11:54:00,
2013-09-10 05:09:00,41.0,40.5,30.04,SE,135,0.0,-999.0,98,-99.99,,,0.00,Acu-Link.com,2013-09-10 12:09:00,
2013-09-10 05:24:00,39.2,38.7,30.04,ESE,112,0.0,-999.0,98,-99.99,,,0.00,Acu-Link.com,2013-09-10 12:24:00,
2013-09-10 05:40:00,39.2,38.7,30.04,ESE,112,0.0,-999.0,98,-99.99,,,0.00,Acu-Link.com,2013-09-10 12:40:00,
2013-09-10 05:55:00,39.2,38.7,30.05,ESE,112,0.0,-999.0,98,-99.99,,,0.00,Acu-Link.com,2013-09-10 12:55:00,
2013-09-10 06:10:00,39.2,38.7,30.05,SE,135,0.0,-999.0,98,-99.99,,,0.00,Acu-Link.com,2013-09-10 13:10:00,
2013-09-10 06:25:00,37.4,36.9,30.05,ESE,112,0.0,-999.0,98,-99.99,,,0.00,Acu-Link.com,2013-09-10 13:25:00,
2013-09-10 06:40:00,37.4,36.9,30.05,ESE,112,0.0,-999.0,98,-99.99,,,0.00,Acu-Link.com,2013-09-10 13:40:00,
2013-09-10 06:56:00,37.4,36.9,30.06,ESE,112,0.0,-999.0,98,-99.99,,,0.00,Acu-Link.com,2013-09-10 13:56:00,
2013-09-10 07:11:00,37.4,36.9,30.07,ESE,112,0.0,-999.0,98,-99.99,,,0.00,Acu-Link.com,2013-09-10 14:11:00,
2013-09-10 07:26:00,39.2,38.7,30.07,SSE,157,0.0,-999.0,98,-99.99,,,0.00,Acu-Link.com,2013-09-10 14:26:00,
2013-09-10 07:41:00,39.2,38.7,30.07,SSE,157,0.0,-999.0,98,-99.99,,,0.00,Acu-Link.com,2013-09-10 14:41:00,
2013-09-10 07:56:00,39.2,38.7,30.08,SSE,157,0.0,-999.0,98,-99.99,,,0.00,Acu-Link.com,2013-09-10 14:56:00,
2013-09-10 08:11:00,41.0,40.5,30.08,South,180,0.0,-999.0,98,-99.99,,,0.00,Acu-Link.com,2013-09-10 15:11:00,
2013-09-10 08:26:00,41.0,40.5,30.08,SSE,157,0.0,-999.0,98,-99.99,,,0.00,Acu-Link.com,2013-09-10 15:26:00,
2013-09-10 08:41:00,42.8,42.3,30.08,SW,225,0.0,-999.0,98,-99.99,,,0.00,Acu-Link.com,2013-09-10 15:41:00,
2013-09-10 08:56:00,44.6,44.1,30.08,SSW,202,0.0,-999.0,98,-99.99,,,0.00,Acu-Link.com,2013-09-10 15:56:00,
2013-09-10 09:11:00,50.0,45.0,30.08,SW,225,0.0,-999.0,83,-99.99,,,0.00,Acu-Link.com,2013-09-10 16:11:00,
2013-09-10 09:26:00,50.0,45.4,30.08,SW,225,0.0,-999.0,84,-99.99,,,0.00,Acu-Link.com,2013-09-10 16:26:00,
2013-09-10 09:41:00,51.8,46.2,30.08,WSW,247,0.0,-999.0,81,-99.99,,,0.00,Acu-Link.com,2013-09-10 16:41:00,